Location: Bratislava
(48.1500°N, 17.1170°E)
Time: 21:39:16
(UTC+02:00)

ISS - Visible Passes

Search period start: 17 July 2018 00:00
Search period end: 27 July 2018 00:00
Orbit: 402 x 408 km, 51.6° (Epoch: 18 July)

Date Brightness Start Highest point End Pass type
(mag) Time Alt. Az. Time Alt. Az. Time Alt. Az.
17 Jul -1.8 00:08:34 20° ENE 00:08:34 20° ENE 00:09:45 10° ENE visible
17 Jul -2.9 01:41:11 22° WNW 01:43:04 49° N 01:46:18 10° ENE visible
17 Jul -2.8 03:16:41 10° WNW 03:19:55 49° N 03:23:08 10° E visible
18 Jul -3.4 00:50:11 46° WNW 00:50:55 62° NNW 00:54:11 10° ENE visible
18 Jul -2.6 02:24:32 10° WNW 02:27:43 44° N 02:30:54 10° ENE visible
18 Jul -3.9 04:01:06 10° WNW 04:04:24 86° SSW 04:07:43 10° ESE visible
18 Jul -3.9 23:58:10 57° WSW 23:58:46 84° NNW 00:02:04 10° ENE visible
19 Jul -2.6 01:32:20 10° WNW 01:35:30 43° N 01:38:40 10° ENE visible
19 Jul -3.5 03:09:00 10° WNW 03:12:17 67° NNE 03:15:35 10° ESE visible
19 Jul -1.9 21:29:13 10° SSE 21:30:43 13° SE 21:32:12 10° ESE visible
19 Jul -4.0 23:03:25 10° SW 23:06:40 65° SSE 23:09:56 10° ENE visible
20 Jul -2.8 00:40:05 10° W 00:43:16 47° N 00:46:29 10° ENE visible
20 Jul -3.0 02:16:52 10° WNW 02:20:07 52° NNE 02:23:21 10° E visible
20 Jul -3.6 03:53:25 10° WNW 03:56:37 47° SSW 03:59:47 10° SE visible
20 Jul -3.4 22:11:32 10° SW 22:14:37 40° SSE 22:17:44 10° ENE visible
20 Jul -3.2 23:47:50 10° W 23:51:04 56° NNW 23:54:19 10° ENE visible
21 Jul -2.7 01:24:42 10° WNW 01:27:53 45° N 01:31:05 10° E visible
21 Jul -4.0 03:01:15 10° WNW 03:04:32 75° SSW 03:07:50 10° ESE visible
21 Jul -2.7 21:19:53 10° SSW 21:22:38 25° SE 21:25:23 10° E visible
21 Jul -3.7 22:55:36 10° WSW 22:58:53 75° NNW 23:02:11 10° ENE visible
22 Jul -2.6 00:32:29 10° WNW 00:35:39 43° N 00:38:49 10° ENE visible
22 Jul -3.7 02:09:06 10° WNW 02:12:24 76° NNE 02:15:42 10° ESE visible
22 Jul -2.7 03:45:55 10° W 03:48:39 24° SW 03:51:23 10° SSE visible
22 Jul -3.9 22:03:27 10° WSW 22:06:43 76° SSE 22:10:01 10° ENE visible
22 Jul -2.7 23:40:12 10° W 23:43:23 45° N 23:46:34 10° ENE visible
23 Jul -3.2 01:16:57 10° WNW 01:20:12 57° NNE 01:20:44 48° NE visible
23 Jul -3.0 22:47:55 10° W 22:51:07 52° NNW 22:54:21 10° ENE visible
24 Jul -2.8 00:24:45 10° WNW 00:27:57 47° N 00:29:01 33° ENE visible
24 Jul -1.2 02:01:17 10° WNW 02:01:36 12° WNW 02:01:36 12° WNW visible
24 Jul -3.4 21:55:37 10° WSW 21:58:53 66° NNW 22:02:10 10° ENE visible
24 Jul -2.6 23:32:31 10° WNW 23:35:40 43° N 23:38:00 16° ENE visible
25 Jul -2.0 01:09:05 10° WNW 01:10:36 25° WNW 01:10:36 25° WNW visible
25 Jul -2.6 22:40:12 10° WNW 22:43:23 43° N 22:46:33 10° ENE visible
26 Jul -3.2 00:16:53 10° WNW 00:19:48 56° NNW 00:19:48 56° NNW visible
26 Jul -2.8 21:47:52 10° W 21:51:04 48° N 21:54:17 10° ENE visible
26 Jul -3.0 23:24:40 10° WNW 23:27:53 50° N 23:29:05 31° ENE visible
